When you browse on this site, cookies collect data to enhance your experience and personalize the content and advertising you see.
Visit our Privacy Policy to learn more. By continuing to use the site, you agree to this use of cookies and data.
  • In France
  • List of Countries
  • For 7 days
  • Water Temperature
  • Satellite Maps
  • Weather Map
  • Weather Widgets
  • user-avatar
    Login

    Hourly Weather Klagenfurt

    Today, 26 June, Wednesday

    Time Temperature Precipitation Wind Pressure Humidity
    00:00 +19°C° 0 mm 1 mps 697 mmHg 90%
    01:00 +16°C° 0 mm 0 mps 697 mmHg 92%
    02:00 +16°C° 0 mm 0 mps 697 mmHg 93%
    03:00 +16°C° 0 mm 0 mps 696 mmHg 93%
    04:00 +15°C° 0 mm 0 mps 696 mmHg 94%
    05:00 +17°C° 0 mm 0 mps 696 mmHg 88%
    06:00 +19°C° 0 mm 0 mps 697 mmHg 83%
    07:00 +21°C° 0 mm 0 mps 698 mmHg 78%
    08:00 +25°C° 0 mm 1 mps 698 mmHg 69%
    09:00 +27°C° 0 mm 1 mps 698 mmHg 61%
    10:00 +29°C° 0 mm 1 mps 698 mmHg 53%
    11:00 +30°C° 0 mm 1 mps 699 mmHg 48%
    12:00 +31°C° 0 mm 1 mps 699 mmHg 44%
    13:00 +32°C° 0 mm 1 mps 699 mmHg 40%
    14:00 +32°C° 0 mm 1 mps 698 mmHg 41%
    15:00 +31°C° 0 mm 1 mps 698 mmHg 42%
    16:00 +31°C° 0 mm 1 mps 698 mmHg 43%
    17:00 +29°C° 0 mm 1 mps 697 mmHg 54%
    18:00 +27°C° 0 mm 1 mps 697 mmHg 64%
    19:00 +25°C° 0 mm 1 mps 697 mmHg 74%
    20:00 +24°C° 0 mm 1 mps 697 mmHg 76%
    21:00 +23°C° 0 mm 1 mps 696 mmHg 78%
    22:00 +22°C° 0 mm 1 mps 696 mmHg 80%
    23:00 +21°C° 0 mm 1 mps 696 mmHg 81%

    Tomorrow, 27 June, Thursday

    Time Temperature Precipitation Wind Pressure Humidity
    00:00 +21°C° 0 mm 1 mps 696 mmHg 83%
    01:00 +20°C° 0 mm 1 mps 696 mmHg 84%
    02:00 +20°C° 0 mm 1 mps 696 mmHg 85%
    03:00 +20°C° 0 mm 1 mps 695 mmHg 87%
    04:00 +19°C° 0 mm 1 mps 695 mmHg 88%
    05:00 +21°C° 0 mm 1 mps 695 mmHg 82%
    06:00 +23°C° 0 mm 1 mps 695 mmHg 75%
    07:00 +25°C° 0 mm 1 mps 696 mmHg 69%
    08:00 +27°C° 0 mm 1 mps 696 mmHg 61%
    09:00 +30°C° 0 mm 1 mps 696 mmHg 53%
    10:00 +32°C° 0 mm 1 mps 696 mmHg 45%
    11:00 +33°C° 0 mm 1 mps 696 mmHg 40%
    12:00 +34°C° 0 mm 1 mps 696 mmHg 36%
    13:00 +35°C° 0 mm 1 mps 696 mmHg 31%
    14:00 +35°C° 0 mm 1 mps 696 mmHg 32%
    15:00 +34°C° 0 mm 1 mps 695 mmHg 33%
    16:00 +34°C° 0 mm 1 mps 695 mmHg 34%
    17:00 +32°C° 0 mm 1 mps 694 mmHg 46%
    18:00 +29°C° 0 mm 1 mps 694 mmHg 58%
    19:00 +27°C° 0 mm 1 mps 693 mmHg 70%
    20:00 +25°C° 0.5 mm 1 mps 693 mmHg 74%
    21:00 +23°C° 0.5 mm 1 mps 694 mmHg 78%
    22:00 +21°C° 0.5 mm 1 mps 694 mmHg 83%
    23:00 +21°C° 0.2 mm 1 mps 694 mmHg 86%

    Day after tomorrow, 28 June, Friday

    Time Temperature Precipitation Wind Pressure Humidity
    00:00 +18°C° 0.2 mm 0 mps 693 mmHg 90%
    01:00 +17°C° 0.2 mm 0 mps 693 mmHg 93%
    02:00 +17°C° 0 mm 0 mps 693 mmHg 95%
    03:00 +19°C° 0 mm 1 mps 693 mmHg 96%
    04:00 +19°C° 0 mm 1 mps 693 mmHg 97%
    05:00 +19°C° 0 mm 1 mps 693 mmHg 94%
    06:00 +19°C° 0 mm 1 mps 693 mmHg 91%
    07:00 +19°C° 0 mm 1 mps 693 mmHg 88%
    08:00 +20°C° 0 mm 1 mps 694 mmHg 80%
    09:00 +22°C° 0 mm 1 mps 694 mmHg 72%
    10:00 +23°C° 0 mm 1 mps 694 mmHg 65%
    11:00 +25°C° 0 mm 2 mps 694 mmHg 60%
    12:00 +26°C° 0 mm 2 mps 694 mmHg 56%
    13:00 +27°C° 0 mm 2 mps 694 mmHg 51%
    14:00 +27°C° 0 mm 2 mps 694 mmHg 54%
    15:00 +26°C° 0 mm 2 mps 694 mmHg 57%
    16:00 +26°C° 0 mm 2 mps 693 mmHg 59%
    17:00 +24°C° 0.1 mm 2 mps 693 mmHg 66%
    18:00 +23°C° 0.1 mm 2 mps 693 mmHg 74%
    19:00 +22°C° 0.1 mm 1 mps 693 mmHg 81%
    20:00 +21°C° 0 mm 1 mps 693 mmHg 83%
    21:00 +19°C° 0 mm 1 mps 694 mmHg 85%
    22:00 +18°C° 0 mm 1 mps 694 mmHg 87%
    23:00 +18°C° 0 mm 1 mps 694 mmHg 88%

    29 June, Saturday

    Time Temperature Precipitation Wind Pressure Humidity
    00:00 +15°C° 0 mm 0 mps 694 mmHg 89%
    01:00 +15°C° 0 mm 0 mps 694 mmHg 90%
    02:00 +14°C° 0 mm 0 mps 693 mmHg 90%
    03:00 +13°C° 0 mm 0 mps 693 mmHg 90%
    04:00 +13°C° 0 mm 0 mps 693 mmHg 91%
    05:00 +14°C° 0 mm 0 mps 693 mmHg 85%
    06:00 +16°C° 0 mm 0 mps 694 mmHg 80%
    07:00 +17°C° 0 mm 0 mps 694 mmHg 74%
    08:00 +21°C° 0 mm 1 mps 694 mmHg 68%
    09:00 +22°C° 0 mm 1 mps 694 mmHg 62%
    10:00 +24°C° 0 mm 1 mps 695 mmHg 55%
    11:00 +25°C° 0 mm 1 mps 695 mmHg 51%
    12:00 +26°C° 0 mm 2 mps 694 mmHg 47%
    13:00 +27°C° 0 mm 2 mps 694 mmHg 43%
    14:00 +27°C° 0 mm 2 mps 694 mmHg 44%
    15:00 +27°C° 0 mm 1 mps 694 mmHg 46%
    16:00 +27°C° 0 mm 1 mps 694 mmHg 47%
    17:00 +25°C° 0 mm 1 mps 694 mmHg 57%
    18:00 +23°C° 0 mm 1 mps 694 mmHg 66%
    19:00 +21°C° 0 mm 1 mps 693 mmHg 76%
    20:00 +20°C° 0 mm 1 mps 693 mmHg 80%
    21:00 +18°C° 0 mm 1 mps 693 mmHg 84%
    22:00 +16°C° 0 mm 1 mps 693 mmHg 88%
    23:00 +15°C° 0 mm 1 mps 693 mmHg 89%

    30 June, Sunday

    Time Temperature Precipitation Wind Pressure Humidity
    00:00 +14°C° 0 mm 0 mps 693 mmHg 90%
    01:00 +13°C° 0 mm 0 mps 693 mmHg 90%
    02:00 +13°C° 0 mm 0 mps 693 mmHg 90%
    03:00 +12°C° 0 mm 0 mps 693 mmHg 90%
    04:00 +12°C° 0 mm 0 mps 693 mmHg 89%
    05:00 +14°C° 0 mm 0 mps 693 mmHg 83%
    06:00 +16°C° 0 mm 0 mps 693 mmHg 76%
    07:00 +18°C° 0 mm 0 mps 694 mmHg 69%
    08:00 +22°C° 0 mm 1 mps 694 mmHg 63%
    09:00 +23°C° 0 mm 1 mps 695 mmHg 58%
    10:00 +25°C° 0 mm 1 mps 695 mmHg 52%
    11:00 +26°C° 0 mm 1 mps 695 mmHg 49%
    12:00 +27°C° 0 mm 1 mps 695 mmHg 47%
    13:00 +29°C° 0 mm 1 mps 695 mmHg 44%
    14:00 +28°C° 0 mm 1 mps 695 mmHg 45%
    15:00 +28°C° 0 mm 1 mps 694 mmHg 46%
    16:00 +28°C° 0 mm 1 mps 694 mmHg 46%
    17:00 +26°C° 0 mm 1 mps 694 mmHg 56%
    18:00 +24°C° 0 mm 1 mps 694 mmHg 65%
    19:00 +23°C° 0 mm 1 mps 693 mmHg 74%
    20:00 +21°C° 0 mm 1 mps 694 mmHg 76%
    21:00 +20°C° 0 mm 1 mps 694 mmHg 78%
    22:00 +19°C° 0 mm 1 mps 694 mmHg 79%
    23:00 +18°C° 0 mm 1 mps 694 mmHg 81%

    1 July, Monday

    Time Temperature Precipitation Wind Pressure Humidity
    00:00 +18°C° 0 mm 1 mps 693 mmHg 82%
    01:00 +16°C° 0 mm 0 mps 693 mmHg 83%
    02:00 +16°C° 0 mm 0 mps 693 mmHg 85%
    03:00 +16°C° 0 mm 0 mps 693 mmHg 87%
    04:00 +15°C° 0 mm 0 mps 693 mmHg 88%
    05:00 +17°C° 0 mm 0 mps 693 mmHg 83%
    06:00 +19°C° 0 mm 0 mps 693 mmHg 78%
    07:00 +21°C° 0 mm 0 mps 694 mmHg 73%
    08:00 +23°C° 0 mm 0 mps 694 mmHg 67%
    09:00 +26°C° 0 mm 0 mps 694 mmHg 60%
    10:00 +30°C° 0 mm 1 mps 694 mmHg 53%
    11:00 +31°C° 0 mm 1 mps 694 mmHg 49%
    12:00 +32°C° 0 mm 1 mps 694 mmHg 45%
    13:00 +33°C° 0 mm 1 mps 694 mmHg 41%
    14:00 +32°C° 0 mm 2 mps 694 mmHg 42%
    15:00 +32°C° 0 mm 2 mps 693 mmHg 43%
    16:00 +31°C° 0 mm 3 mps 693 mmHg 43%
    17:00 +29°C° 0.5 mm 2 mps 692 mmHg 58%
    18:00 +26°C° 0.5 mm 2 mps 692 mmHg 72%
    19:00 +23°C° 0.5 mm 2 mps 692 mmHg 87%
    20:00 +21°C° 0.2 mm 1 mps 692 mmHg 87%
    21:00 +20°C° 0.2 mm 1 mps 692 mmHg 88%
    22:00 +19°C° 0.2 mm 1 mps 692 mmHg 88%
    23:00 +18°C° 0 mm 1 mps 691 mmHg 88%
    Show more